[[{"header":{"parameterUnit":"m.s-1","parameterCategory":1,"la1":30.2992,"la2":30.254,"lo1":-89.0895,"lo2":-89.0443,"dy":0.0025,"dx":0.0025,"nx":19,"ny":19,"refTime":"2026-05-24T03:00:00:Z","depth":0,"parameterNumber":2,"parameterNumberName":"U-component_of_WINDS"},"data":[0,0,0,-2.3046,-2.305,-2.321,-2.321,-2.3451,-2.3453,0,0,0,0,0,0,0,0,0,0,0,-2.3016,-2.3019,-2.3046,-2.305,-2.321,-2.321,-2.345,-2.3453,0,0,0,0,0,0,0,0,0,0,0,-2.3015,-2.3018,-2.3021,-2.3051,-2.321,-2.321,-2.3449,-2.3317,0,0,0,0,0,0,0,0,0,0,-2.3156,-2.3145,-2.3017,-2.3021,-2.3052,-2.321,-2.321,-2.331,-2.3326,-2.3392,0,-2.3452,0,-2.3456,-2.3471,-2.3472,0,0,0,-2.3039,-2.3133,-2.3159,-2.3021,-2.3054,-2.3209,-2.3135,-2.3318,-2.3336,-2.3413,-2.3455,-2.3463,-2.346,-2.3473,-2.3474,-2.3888,-2.3891,0,0,-2.303,-2.3056,-2.3147,-2.3171,-2.3144,-2.313,-2.314,-2.3328,-2.3379,-2.3456,-2.3468,-2.3464,-2.3474,-2.3476,-2.3886,-2.3889,0,0,0,-2.3012,-2.305,-2.3071,-2.3162,-2.3188,-2.3134,-2.3146,-2.337,-2.3375,-2.3471,-2.3467,-2.3476,-2.3479,-2.3883,-2.3887,-2.4035,0,0,0,-2.3006,-2.304,-2.3068,-2.3086,-2.3185,-2.328,-2.3184,-2.3362,-2.3382,-2.3466,-2.3476,-2.3482,-2.388,-2.3885,-2.4025,-2.4102,0,0,0,-2.3,-2.3039,-2.3067,-2.3087,-2.3156,-2.3276,-2.3291,-2.3365,-2.3381,-2.3472,-2.3483,-2.3878,-2.3884,-2.4016,-2.4087,-2.4219,0,0,0,-2.3002,-2.3198,-2.307,-2.3288,-2.3155,-2.3365,-2.329,-2.3446,-2.3542,-2.3477,-2.3881,-2.3887,-2.4013,-2.4078,-2.421,-2.4337,-2.4391,0,0,-2.3265,-2.3231,-2.3357,-2.3247,-2.3486,-2.3338,-2.3601,-2.3666,-2.3653,-2.3812,-2.3821,-2.4028,-2.4086,-2.4217,-2.4683,-2.4727,0,0,0,-2.3449,-2.3541,-2.3598,-2.3688,-2.374,-2.3793,-2.3813,-2.3838,-2.3971,-2.3738,-2.411,-2.4143,-2.422,-2.4279,-2.4316,-2.4381,-2.3914,-2.3914,-2.3913,-2.386,-2.3829,-2.4037,-2.4026,-2.4115,-2.4134,-2.4205,-2.4242,-2.4187,-2.4275,-2.4323,-2.4609,-2.468,-2.4707,-2.4775,-2.4386,-2.4386,-2.4387,-2.4387,-2.4244,-2.4369,-2.4289,-2.4461,-2.4429,-2.4575,-2.4602,-2.4558,-2.4693,-2.4571,-2.4636,-2.4508,-2.4756,-2.4814,-2.4398,-2.4396,-2.4395,-2.4394,-2.4393,-2.4512,-2.4566,-2.4589,-2.4717,-2.482,-2.4803,-2.4934,-2.49,-2.487,-2.4935,-2.4983,-2.4981,-2.4976,-2.496,-2.4961,-2.4962,-2.4963,-2.4963,-2.4964,-2.4781,-2.4802,-2.4915,-2.4986,-2.5039,-2.5107,-2.5128,-2.5182,-2.5233,-2.5199,-2.5199,-2.5138,-2.4784,-2.4697,-2.4979,-2.4977,-2.4975,-2.4973,-2.4972,-2.5185,-2.5088,-2.5262,-2.5316,-2.5397,-2.5503,-2.5456,-2.5569,-2.5608,-2.5675,-2.5599,-2.5342,-2.5307,-2.5277,-2.5206,-2.5602,-2.5602,-2.5602,-2.5603,-2.5413,-2.539,-2.5561,-2.5649,-2.5732,-2.5708,-2.5911,-2.593,-2.5936,-2.5959,-2.5896,-2.5797,-2.5768,-2.575,-2.5711,-2.5643,-2.6143,-2.6143,-2.6144,-2.5661,-2.5644,-2.5821,-2.5821,-2.5882,-2.5936,-2.6126,-2.6235,-2.6221,-2.6165,-2.5977,-2.5955,-2.5794,-2.5743,-2.5686,-2.5625,-2.55,0,0]},{"header":{"parameterUnit":"m.s-1","parameterCategory":1,"la1":30.2992,"la2":30.254,"lo1":-89.0895,"lo2":-89.0443,"dy":0.0025,"dx":0.0025,"nx":19,"ny":19,"refTime":"2026-05-24T03:00:00:Z","depth":0,"parameterNumber":3,"parameterNumberName":"V-component_of_WINDS"},"data":[0,0,0,-0.9811,-0.981,-0.9755,-0.9754,-0.9672,-0.9671,0,0,0,0,0,0,0,0,0,0,0,-0.9824,-0.9823,-0.9811,-0.9809,-0.9755,-0.9754,-0.9672,-0.9671,0,0,0,0,0,0,0,0,0,0,0,-0.9824,-0.9823,-0.9822,-0.9809,-0.9755,-0.9754,-0.9672,-0.9717,0,0,0,0,0,0,0,0,0,0,-0.9772,-0.9782,-0.9823,-0.9822,-0.9809,-0.9755,-0.9754,-0.9719,-0.9714,-0.9692,0,-0.9676,0,-0.9672,-0.9665,-0.9665,0,0,0,-0.9811,-0.9786,-0.9775,-0.9822,-0.9808,-0.9755,-0.978,-0.9716,-0.9711,-0.9686,-0.9675,-0.9672,-0.9671,-0.9664,-0.9664,-0.9542,-0.9541,0,0,-0.9814,-0.9811,-0.9779,-0.9771,-0.9783,-0.9781,-0.9778,-0.9713,-0.97,-0.9675,-0.967,-0.967,-0.9664,-0.9663,-0.9542,-0.9542,0,0,0,-0.9822,-0.9813,-0.9804,-0.9774,-0.9765,-0.978,-0.9776,-0.9703,-0.97,-0.967,-0.9669,-0.9663,-0.9662,-0.9543,-0.9542,-0.9507,0,0,0,-0.9823,-0.9818,-0.9805,-0.9802,-0.9766,-0.9734,-0.9767,-0.9704,-0.9697,-0.9669,-0.9663,-0.9661,-0.9544,-0.9543,-0.951,-0.949,0,0,0,-0.9828,-0.9818,-0.981,-0.9802,-0.9779,-0.9735,-0.9729,-0.9703,-0.9696,-0.9664,-0.9661,-0.9544,-0.9543,-0.9512,-0.9493,-0.9454,0,0,0,-0.9832,-0.978,-0.9809,-0.975,-0.978,-0.9716,-0.9729,-0.9682,-0.965,-0.9663,-0.9544,-0.9542,-0.9513,-0.9496,-0.9457,-0.9419,-0.9404,0,0,-0.9764,-0.9771,-0.9737,-0.9762,-0.9692,-0.9725,-0.9648,-0.9621,-0.9619,-0.9566,-0.9564,-0.9509,-0.9494,-0.9455,-0.9327,-0.9315,0,0,0,-0.9714,-0.9689,-0.9671,-0.9643,-0.9622,-0.9601,-0.9586,-0.9575,-0.9531,-0.9593,-0.9486,-0.9477,-0.9454,-0.9436,-0.9425,-0.9404,-0.9535,-0.9535,-0.9535,-0.9613,-0.9615,-0.9556,-0.9551,-0.9522,-0.9507,-0.9482,-0.9464,-0.9474,-0.9449,-0.9432,-0.9355,-0.9333,-0.9326,-0.9303,-0.9415,-0.9415,-0.9415,-0.9415,-0.9511,-0.9473,-0.9488,-0.9437,-0.9437,-0.9392,-0.9374,-0.9382,-0.9337,-0.9368,-0.9348,-0.9379,-0.9313,-0.9293,-0.9412,-0.9413,-0.9413,-0.9413,-0.9413,-0.9441,-0.9424,-0.9414,-0.937,-0.9336,-0.9332,-0.9288,-0.929,-0.9292,-0.9272,-0.9252,-0.9252,-0.925,-0.9263,-0.9263,-0.9263,-0.9263,-0.9262,-0.9262,-0.9372,-0.9362,-0.9327,-0.93,-0.928,-0.9254,-0.9237,-0.9216,-0.9192,-0.9197,-0.9197,-0.9205,-0.9308,-0.9331,-0.9258,-0.9259,-0.9259,-0.926,-0.926,-0.9262,-0.9287,-0.9233,-0.9213,-0.9179,-0.9142,-0.9147,-0.9104,-0.9087,-0.9064,-0.9077,-0.9154,-0.916,-0.9168,-0.9187,-0.9081,-0.9081,-0.9081,-0.9081,-0.9201,-0.9206,-0.9148,-0.9116,-0.9085,-0.9083,-0.9015,-0.8999,-0.8986,-0.8975,-0.8991,-0.9018,-0.9026,-0.9027,-0.9038,-0.9055,-0.8918,-0.8918,-0.8917,-0.9131,-0.9132,-0.9076,-0.9068,-0.9041,-0.9016,-0.8951,-0.8909,-0.89,-0.8911,-0.8964,-0.8971,-0.9014,-0.9029,-0.9038,-0.9056,-0.9088,0,0]}]]